Time,TemperatureF,DewpointF,PressureIn,WindDirection,WindDirectionDegrees,WindSpeedMPH,WindSpeedGustMPH,Humidity,HourlyPrecipIn,Conditions,Clouds,dailyrainin,SoftwareType,DateUTC
2013-01-06 00:15:00,21.7,16.3,29.96,WSW,247,0.0,-999.0,79,-99.99,,,0.00,Acu-Link.com,2013-01-06 05:15:00,
2013-01-06 00:30:00,21.6,16.4,29.96,West,270,1.6,-999.0,80,-99.99,,,0.00,Acu-Link.com,2013-01-06 05:30:00,
2013-01-06 00:46:00,21.9,17.0,29.96,West,270,2.2,-999.0,81,-99.99,,,0.00,Acu-Link.com,2013-01-06 05:46:00,
2013-01-06 01:01:00,22.5,17.0,29.95,WNW,292,2.7,-999.0,79,-99.99,,,0.00,Acu-Link.com,2013-01-06 06:01:00,
2013-01-06 01:16:00,22.6,17.1,29.96,SW,225,1.6,-999.0,79,-99.99,,,0.00,Acu-Link.com,2013-01-06 06:16:00,
2013-01-06 01:31:00,22.5,18.1,29.97,NW,315,0.0,-999.0,83,-99.99,,,0.00,Acu-Link.com,2013-01-06 06:31:00,
2013-01-06 01:46:00,22.6,17.7,29.97,NNW,337,1.6,-999.0,81,-99.99,,,0.00,Acu-Link.com,2013-01-06 06:46:00,
2013-01-06 02:02:00,23.4,18.1,29.98,South,180,0.0,-999.0,80,-99.99,,,0.00,Acu-Link.com,2013-01-06 07:02:00,
2013-01-06 02:17:00,22.8,18.4,29.97,West,270,1.6,-999.0,83,-99.99,,,0.00,Acu-Link.com,2013-01-06 07:17:00,
2013-01-06 02:32:00,23.4,18.7,29.97,East,90,1.1,-999.0,82,-99.99,,,0.00,Acu-Link.com,2013-01-06 07:32:00,
2013-01-06 02:47:00,23.2,19.1,29.96,SSE,157,0.0,-999.0,84,-99.99,,,0.00,Acu-Link.com,2013-01-06 07:47:00,
2013-01-06 03:03:00,23.0,18.9,29.95,West,270,0.0,-999.0,84,-99.99,,,0.00,Acu-Link.com,2013-01-06 08:03:00,
2013-01-06 03:18:00,23.0,18.9,29.94,North,0,0.0,-999.0,84,-99.99,,,0.00,Acu-Link.com,2013-01-06 08:18:00,
2013-01-06 03:33:00,23.0,18.6,29.93,NW,315,0.0,-999.0,83,-99.99,,,0.00,Acu-Link.com,2013-01-06 08:33:00,
2013-01-06 03:48:00,23.5,19.4,29.92,SSE,157,0.0,-999.0,84,-99.99,,,0.00,Acu-Link.com,2013-01-06 08:48:00,
2013-01-06 04:09:00,23.7,19.3,29.91,SSE,157,0.0,-999.0,83,-99.99,,,0.00,Acu-Link.com,2013-01-06 09:09:00,
2013-01-06 04:24:00,23.7,20.4,29.91,SE,135,0.0,-999.0,87,-99.99,,,0.00,Acu-Link.com,2013-01-06 09:24:00,
2013-01-06 04:39:00,23.5,21.6,29.88,ESE,112,0.0,-999.0,92,-99.99,,,0.00,Acu-Link.com,2013-01-06 09:39:00,
2013-01-06 04:54:00,23.9,22.7,29.87,SSE,157,1.6,-999.0,95,-99.99,,,0.00,Acu-Link.com,2013-01-06 09:54:00,
2013-01-06 05:09:00,24.3,23.3,29.88,South,180,0.0,-999.0,96,-99.99,,,0.00,Acu-Link.com,2013-01-06 10:09:00,
2013-01-06 05:25:00,24.4,23.5,29.86,ESE,112,2.2,-999.0,96,-99.99,,,0.00,Acu-Link.com,2013-01-06 10:25:00,
2013-01-06 05:40:00,24.4,23.5,29.86,ESE,112,1.6,-999.0,96,-99.99,,,0.00,Acu-Link.com,2013-01-06 10:40:00,
2013-01-06 05:55:00,24.6,23.9,29.85,NW,315,0.0,-999.0,97,-99.99,,,0.00,Acu-Link.com,2013-01-06 10:55:00,
2013-01-06 06:10:00,24.8,24.1,29.85,SE,135,0.0,-999.0,97,-99.99,,,0.00,Acu-Link.com,2013-01-06 11:10:00,
2013-01-06 06:26:00,25.0,24.3,29.84,ESE,112,0.0,-999.0,97,-99.99,,,0.00,Acu-Link.com,2013-01-06 11:26:00,
2013-01-06 06:41:00,25.2,24.4,29.84,SSE,157,2.7,-999.0,97,-99.99,,,0.00,Acu-Link.com,2013-01-06 11:41:00,
2013-01-06 06:56:00,25.3,24.6,29.84,SSW,202,1.6,-999.0,97,-99.99,,,0.00,Acu-Link.com,2013-01-06 11:56:00,
2013-01-06 07:11:00,25.3,24.6,29.83,SSW,202,0.0,-999.0,97,-99.99,,,0.00,Acu-Link.com,2013-01-06 12:11:00,
2013-01-06 07:27:00,24.8,24.1,29.83,WSW,247,0.0,-999.0,97,-99.99,,,0.00,Acu-Link.com,2013-01-06 12:27:00,
2013-01-06 07:42:00,24.8,24.1,29.83,ESE,112,0.0,-999.0,97,-99.99,,,0.00,Acu-Link.com,2013-01-06 12:42:00,
2013-01-06 07:57:00,26.8,25.8,29.82,SSW,202,5.1,-999.0,96,-99.99,,,0.00,Acu-Link.com,2013-01-06 12:57:00,
2013-01-06 08:12:00,28.9,26.4,29.82,North,0,1.6,-999.0,90,-99.99,,,0.00,Acu-Link.com,2013-01-06 13:12:00,
2013-01-06 08:27:00,30.0,26.4,29.82,SSW,202,2.2,-999.0,86,-99.99,,,0.00,Acu-Link.com,2013-01-06 13:27:00,
2013-01-06 08:58:00,31.5,26.6,29.82,ENE,67,1.1,-999.0,82,-99.99,,,0.00,Acu-Link.com,2013-01-06 13:58:00,
2013-01-06 09:13:00,32.2,27.0,29.81,SW,225,2.7,-999.0,81,-99.99,,,0.00,Acu-Link.com,2013-01-06 14:13:00,
2013-01-06 09:28:00,33.1,26.7,29.81,SSE,157,4.7,-999.0,77,-99.99,,,0.00,Acu-Link.com,2013-01-06 14:28:00,
2013-01-06 09:43:00,33.1,26.7,29.81,NW,315,2.7,-999.0,77,-99.99,,,0.00,Acu-Link.com,2013-01-06 14:43:00,
2013-01-06 09:59:00,35.2,27.5,29.81,South,180,1.6,-999.0,73,-99.99,,,0.00,Acu-Link.com,2013-01-06 14:59:00,
2013-01-06 10:14:00,35.1,27.3,29.80,SE,135,2.2,-999.0,73,-99.99,,,0.00,Acu-Link.com,2013-01-06 15:14:00,
2013-01-06 10:29:00,36.0,26.8,29.79,WSW,247,1.6,-999.0,69,-99.99,,,0.00,Acu-Link.com,2013-01-06 15:29:00,
2013-01-06 10:44:00,36.3,27.1,29.79,SE,135,3.1,-999.0,69,-99.99,,,0.00,Acu-Link.com,2013-01-06 15:44:00,
2013-01-06 11:00:00,36.1,27.0,29.79,WSW,247,2.2,-999.0,69,-99.99,,,0.00,Acu-Link.com,2013-01-06 16:00:00,
2013-01-06 11:15:00,36.0,26.4,29.77,West,270,3.8,-999.0,68,-99.99,,,0.00,Acu-Link.com,2013-01-06 16:15:00,
2013-01-06 11:30:00,36.3,26.4,29.76,West,270,3.8,-999.0,67,-99.99,,,0.00,Acu-Link.com,2013-01-06 16:30:00,
2013-01-06 11:45:00,37.2,26.9,29.76,West,270,1.6,-999.0,66,-99.99,,,0.00,Acu-Link.com,2013-01-06 16:45:00,
2013-01-06 12:00:00,37.6,27.3,29.74,West,270,3.8,-999.0,66,-99.99,,,0.00,Acu-Link.com,2013-01-06 17:00:00,
2013-01-06 12:16:00,37.9,26.9,29.74,WSW,247,4.7,-999.0,64,-99.99,,,0.00,Acu-Link.com,2013-01-06 17:16:00,
2013-01-06 12:31:00,39.0,27.5,29.73,WSW,247,4.3,-999.0,63,-99.99,,,0.00,Acu-Link.com,2013-01-06 17:31:00,
2013-01-06 12:46:00,39.0,27.1,29.73,West,270,5.8,-999.0,62,-99.99,,,0.00,Acu-Link.com,2013-01-06 17:46:00,
2013-01-06 13:01:00,39.6,27.6,29.73,SW,225,1.1,-999.0,62,-99.99,,,0.00,Acu-Link.com,2013-01-06 18:01:00,
2013-01-06 13:16:00,38.5,27.0,29.72,NW,315,4.7,-999.0,63,-99.99,,,0.00,Acu-Link.com,2013-01-06 18:16:00,
2013-01-06 13:32:00,39.4,27.8,29.72,NNW,337,4.7,-999.0,63,-99.99,,,0.00,Acu-Link.com,2013-01-06 18:32:00,
2013-01-06 13:47:00,39.0,27.5,29.72,West,270,4.3,-999.0,63,-99.99,,,0.00,Acu-Link.com,2013-01-06 18:47:00,
2013-01-06 14:02:00,39.4,27.8,29.72,West,270,2.2,-999.0,63,-99.99,,,0.00,Acu-Link.com,2013-01-06 19:02:00,
2013-01-06 14:18:00,39.7,28.2,29.72,West,270,2.2,-999.0,63,-99.99,,,0.00,Acu-Link.com,2013-01-06 19:18:00,
2013-01-06 14:33:00,39.7,27.8,29.72,NNW,337,4.7,-999.0,62,-99.99,,,0.00,Acu-Link.com,2013-01-06 19:33:00,
2013-01-06 14:48:00,39.6,28.0,29.73,NW,315,1.6,-999.0,63,-99.99,,,0.00,Acu-Link.com,2013-01-06 19:48:00,
2013-01-06 15:19:00,38.7,27.5,29.72,WNW,292,1.6,-999.0,64,-99.99,,,0.00,Acu-Link.com,2013-01-06 20:19:00,
2013-01-06 15:34:00,37.6,27.6,29.71,South,180,2.7,-999.0,67,-99.99,,,0.00,Acu-Link.com,2013-01-06 20:34:00,
2013-01-06 15:49:00,36.5,27.3,29.71,WNW,292,1.1,-999.0,69,-99.99,,,0.00,Acu-Link.com,2013-01-06 20:49:00,
2013-01-06 16:04:00,35.6,26.8,29.71,SSW,202,0.0,-999.0,70,-99.99,,,0.00,Acu-Link.com,2013-01-06 21:04:00,
2013-01-06 16:19:00,34.7,26.6,29.71,SW,225,1.6,-999.0,72,-99.99,,,0.00,Acu-Link.com,2013-01-06 21:19:00,
2013-01-06 16:35:00,34.2,26.4,29.71,SSW,202,1.1,-999.0,73,-99.99,,,0.00,Acu-Link.com,2013-01-06 21:35:00,
2013-01-06 16:50:00,33.6,26.6,29.72,NNW,337,0.0,-999.0,75,-99.99,,,0.00,Acu-Link.com,2013-01-06 21:50:00,
2013-01-06 17:05:00,33.4,26.4,29.73,NW,315,0.0,-999.0,75,-99.99,,,0.00,Acu-Link.com,2013-01-06 22:05:00,
2013-01-06 17:20:00,33.3,26.5,29.72,West,270,0.0,-999.0,76,-99.99,,,0.00,Acu-Link.com,2013-01-06 22:20:00,
2013-01-06 17:36:00,33.4,26.7,29.72,West,270,0.0,-999.0,76,-99.99,,,0.00,Acu-Link.com,2013-01-06 22:36:00,
2013-01-06 17:51:00,33.3,27.2,29.72,SW,225,0.0,-999.0,78,-99.99,,,0.00,Acu-Link.com,2013-01-06 22:51:00,
2013-01-06 18:06:00,33.3,27.2,29.72,SSW,202,0.0,-999.0,78,-99.99,,,0.00,Acu-Link.com,2013-01-06 23:06:00,
2013-01-06 18:21:00,32.7,26.9,29.72,West,270,0.0,-999.0,79,-99.99,,,0.00,Acu-Link.com,2013-01-06 23:21:00,
2013-01-06 18:36:00,32.5,26.8,29.73,South,180,0.0,-999.0,79,-99.99,,,0.00,Acu-Link.com,2013-01-06 23:36:00,
2013-01-06 18:52:00,32.4,26.9,29.73,WSW,247,1.1,-999.0,80,-99.99,,,0.00,Acu-Link.com,2013-01-06 23:52:00,
2013-01-06 19:07:00,32.4,26.9,29.73,WNW,292,0.0,-999.0,80,-99.99,,,0.00,Acu-Link.com,2013-01-07 00:07:00,
2013-01-06 19:22:00,32.2,26.7,29.73,West,270,0.0,-999.0,80,-99.99,,,0.00,Acu-Link.com,2013-01-07 00:22:00,
2013-01-06 19:37:00,32.5,27.1,29.73,West,270,1.6,-999.0,80,-99.99,,,0.00,Acu-Link.com,2013-01-07 00:37:00,
2013-01-06 20:08:00,32.2,26.7,29.74,West,270,1.6,-999.0,80,-99.99,,,0.00,Acu-Link.com,2013-01-07 01:08:00,
2013-01-06 20:23:00,31.8,26.7,29.74,SW,225,0.0,-999.0,81,-99.99,,,0.00,Acu-Link.com,2013-01-07 01:23:00,
2013-01-06 20:38:00,31.6,26.8,29.74,NNW,337,0.0,-999.0,82,-99.99,,,0.00,Acu-Link.com,2013-01-07 01:38:00,
2013-01-06 20:53:00,31.6,26.8,29.74,NW,315,1.6,-999.0,82,-99.99,,,0.00,Acu-Link.com,2013-01-07 01:53:00,
2013-01-06 21:08:00,32.0,27.1,29.73,WNW,292,0.0,-999.0,82,-99.99,,,0.00,Acu-Link.com,2013-01-07 02:08:00,
2013-01-06 21:24:00,32.0,27.1,29.73,West,270,0.0,-999.0,82,-99.99,,,0.00,Acu-Link.com,2013-01-07 02:24:00,
2013-01-06 21:39:00,31.5,27.5,29.73,SSE,157,2.2,-999.0,85,-99.99,,,0.00,Acu-Link.com,2013-01-07 02:39:00,
2013-01-06 21:54:00,30.7,27.3,29.73,ESE,112,1.6,-999.0,87,-99.99,,,0.00,Acu-Link.com,2013-01-07 02:54:00,
2013-01-06 22:09:00,30.4,27.0,29.73,SSE,157,0.0,-999.0,87,-99.99,,,0.00,Acu-Link.com,2013-01-07 03:09:00,
2013-01-06 22:25:00,29.8,26.7,29.73,SE,135,2.2,-999.0,88,-99.99,,,0.00,Acu-Link.com,2013-01-07 03:25:00,
2013-01-06 22:40:00,30.9,27.2,29.74,SSW,202,3.8,-999.0,86,-99.99,,,0.00,Acu-Link.com,2013-01-07 03:40:00,
2013-01-06 22:55:00,31.5,26.3,29.73,South,180,1.6,-999.0,81,-99.99,,,0.00,Acu-Link.com,2013-01-07 03:55:00,
2013-01-06 23:10:00,32.4,26.6,29.73,South,180,2.2,-999.0,79,-99.99,,,0.00,Acu-Link.com,2013-01-07 04:10:00,
2013-01-06 23:25:00,32.0,26.5,29.73,NNE,22,1.6,-999.0,80,-99.99,,,0.00,Acu-Link.com,2013-01-07 04:25:00,
2013-01-06 23:41:00,32.0,26.2,29.73,East,90,0.0,-999.0,79,-99.99,,,0.00,Acu-Link.com,2013-01-07 04:41:00,
2013-01-06 23:56:00,32.5,26.5,29.73,North,0,1.6,-999.0,78,-99.99,,,0.00,Acu-Link.com,2013-01-07 04:56:00,